Time,TemperatureF,DewpointF,PressureIn,WindDirection,WindDirectionDegrees,WindSpeedMPH,WindSpeedGustMPH,Humidity,HourlyPrecipIn,Conditions,Clouds,dailyrainin,SolarRadiationWatts/m^2,SoftwareType,DateUTC
2013-01-20 00:02:00,11.0,-3.0,-100.00,NW,322,13.0,32.0,53,0.00,,,0.00,0.000000,,2013-01-20 06:02:00,
2013-01-20 00:12:00,8.0,-5.0,-100.00,NW,315,13.0,33.0,55,0.00,,,0.00,0.000000,,2013-01-20 06:12:00,
2013-01-20 00:33:00,8.0,-5.0,-100.00,NW,315,13.0,33.0,55,0.00,,,0.00,0.000000,,2013-01-20 06:33:00,
2013-01-20 00:43:00,8.0,-5.0,-100.00,NW,315,13.0,33.0,55,0.00,,,0.00,0.000000,,2013-01-20 06:43:00,
2013-01-20 00:53:00,8.0,-5.0,-100.00,NW,315,13.0,33.0,55,0.00,,,0.00,0.000000,,2013-01-20 06:53:00,
2013-01-20 01:02:00,8.0,-5.0,-100.00,NW,315,13.0,33.0,55,0.00,,,0.00,0.000000,,2013-01-20 07:02:00,
2013-01-20 01:12:00,7.0,-4.0,-100.00,NW,316,11.0,23.0,60,0.00,,,0.00,0.000000,,2013-01-20 07:12:00,
2013-01-20 01:32:00,7.0,-4.0,-100.00,NW,316,11.0,23.0,60,0.00,,,0.00,0.000000,,2013-01-20 07:32:00,
2013-01-20 01:42:00,7.0,-4.0,-100.00,NW,316,11.0,23.0,60,0.00,,,0.00,0.000000,,2013-01-20 07:42:00,
2013-01-20 01:52:00,7.0,-4.0,-100.00,NW,316,11.0,23.0,60,0.00,,,0.00,0.000000,,2013-01-20 07:52:00,
2013-01-20 02:02:00,7.0,-4.0,-100.00,NW,316,11.0,23.0,60,0.00,,,0.00,0.000000,,2013-01-20 08:02:00,
2013-01-20 02:12:00,7.0,-5.0,-100.00,NNW,329,13.0,27.0,57,0.00,,,0.00,0.000000,,2013-01-20 08:12:00,
2013-01-20 02:42:00,7.0,-5.0,-100.00,NNW,329,13.0,27.0,57,0.00,,,0.00,0.000000,,2013-01-20 08:42:00,
2013-01-20 02:52:00,7.0,-5.0,-100.00,NNW,329,13.0,27.0,57,0.00,,,0.00,0.000000,,2013-01-20 08:52:00,
2013-01-20 03:02:00,7.0,-5.0,-100.00,NNW,329,13.0,27.0,57,0.00,,,0.00,0.000000,,2013-01-20 09:02:00,
2013-01-20 03:12:00,7.0,-6.0,-100.00,NNW,329,12.0,30.0,55,0.00,,,0.00,0.000000,,2013-01-20 09:12:00,
2013-01-20 03:33:00,7.0,-6.0,-100.00,NNW,329,12.0,30.0,55,0.00,,,0.00,0.000000,,2013-01-20 09:33:00,
2013-01-20 03:42:00,7.0,-6.0,-100.00,NNW,329,12.0,30.0,55,0.00,,,0.00,0.000000,,2013-01-20 09:42:00,
2013-01-20 03:53:00,7.0,-6.0,-100.00,NNW,329,12.0,30.0,55,0.00,,,0.00,0.000000,,2013-01-20 09:53:00,
2013-01-20 04:02:00,7.0,-6.0,-100.00,NNW,329,12.0,30.0,55,0.00,,,0.00,0.000000,,2013-01-20 10:02:00,
2013-01-20 04:12:00,6.0,-6.0,-100.00,NW,326,8.0,23.0,58,0.00,,,0.00,0.000000,,2013-01-20 10:12:00,
2013-01-20 04:33:00,6.0,-6.0,-100.00,NW,326,8.0,23.0,58,0.00,,,0.00,0.000000,,2013-01-20 10:33:00,
2013-01-20 04:42:00,6.0,-6.0,-100.00,NW,326,8.0,23.0,58,0.00,,,0.00,0.000000,,2013-01-20 10:42:00,
2013-01-20 04:52:00,6.0,-6.0,-100.00,NW,326,8.0,23.0,58,0.00,,,0.00,0.000000,,2013-01-20 10:52:00,
2013-01-20 05:02:00,6.0,-6.0,-100.00,NW,326,8.0,23.0,58,0.00,,,0.00,0.000000,,2013-01-20 11:02:00,
2013-01-20 05:12:00,5.0,-6.0,-100.00,NW,322,8.0,23.0,59,0.00,,,0.00,0.000000,,2013-01-20 11:12:00,
2013-01-20 05:33:00,5.0,-6.0,-100.00,NW,322,8.0,23.0,59,0.00,,,0.00,0.000000,,2013-01-20 11:33:00,
2013-01-20 05:43:00,5.0,-6.0,-100.00,NW,322,8.0,23.0,59,0.00,,,0.00,0.000000,,2013-01-20 11:43:00,
2013-01-20 05:53:00,5.0,-6.0,-100.00,NW,322,8.0,23.0,59,0.00,,,0.00,0.000000,,2013-01-20 11:53:00,
2013-01-20 06:03:00,5.0,-6.0,-100.00,NW,322,8.0,23.0,59,0.00,,,0.00,0.000000,,2013-01-20 12:03:00,
2013-01-20 06:12:00,4.0,-7.0,-100.00,NW,316,8.0,17.0,59,0.00,,,0.00,0.000000,,2013-01-20 12:12:00,
2013-01-20 06:33:00,4.0,-7.0,-100.00,NW,316,8.0,17.0,59,0.00,,,0.00,0.000000,,2013-01-20 12:33:00,
2013-01-20 06:43:00,4.0,-7.0,-100.00,NW,316,8.0,17.0,59,0.00,,,0.00,0.000000,,2013-01-20 12:43:00,
2013-01-20 06:53:00,4.0,-7.0,-100.00,NW,316,8.0,17.0,59,0.00,,,0.00,0.000000,,2013-01-20 12:53:00,
2013-01-20 07:03:00,4.0,-7.0,-100.00,NW,316,8.0,17.0,59,0.00,,,0.00,0.000000,,2013-01-20 13:03:00,
2013-01-20 07:12:00,3.0,-9.0,-100.00,NW,315,8.0,17.0,56,0.00,,,0.00,0.000000,,2013-01-20 13:12:00,
2013-01-20 07:33:00,3.0,-9.0,-100.00,NW,315,8.0,17.0,56,0.00,,,0.00,0.000000,,2013-01-20 13:33:00,
2013-01-20 07:43:00,3.0,-9.0,-100.00,NW,315,8.0,17.0,56,0.00,,,0.00,0.000000,,2013-01-20 13:43:00,
2013-01-20 07:53:00,3.0,-9.0,-100.00,NW,315,8.0,17.0,56,0.00,,,0.00,0.000000,,2013-01-20 13:53:00,
2013-01-20 08:02:00,3.0,-9.0,-100.00,NW,315,8.0,17.0,56,0.00,,,0.00,0.000000,,2013-01-20 14:02:00,
2013-01-20 08:12:00,4.0,-6.0,-100.00,NW,316,7.0,16.0,61,0.00,,,0.00,36.000000,,2013-01-20 14:12:00,
2013-01-20 08:33:00,4.0,-6.0,-100.00,NW,316,7.0,16.0,61,0.00,,,0.00,36.000000,,2013-01-20 14:33:00,
2013-01-20 08:43:00,4.0,-6.0,-100.00,NW,316,7.0,16.0,61,0.00,,,0.00,36.000000,,2013-01-20 14:43:00,
2013-01-20 08:53:00,4.0,-6.0,-100.00,NW,316,7.0,16.0,61,0.00,,,0.00,36.000000,,2013-01-20 14:53:00,
2013-01-20 09:03:00,4.0,-6.0,-100.00,NW,316,7.0,16.0,61,0.00,,,0.00,36.000000,,2013-01-20 15:03:00,
2013-01-20 09:12:00,8.0,-5.0,-100.00,NNW,332,7.0,18.0,55,0.00,,,0.00,190.000000,,2013-01-20 15:12:00,
2013-01-20 09:33:00,8.0,-5.0,-100.00,NNW,332,7.0,18.0,55,0.00,,,0.00,190.000000,,2013-01-20 15:33:00,
2013-01-20 09:43:00,8.0,-5.0,-100.00,NNW,332,7.0,18.0,55,0.00,,,0.00,190.000000,,2013-01-20 15:43:00,
2013-01-20 09:53:00,8.0,-5.0,-100.00,NNW,332,7.0,18.0,55,0.00,,,0.00,190.000000,,2013-01-20 15:53:00,
2013-01-20 10:03:00,8.0,-5.0,-100.00,NNW,332,7.0,18.0,55,0.00,,,0.00,190.000000,,2013-01-20 16:03:00,
2013-01-20 10:12:00,9.0,-8.0,-100.00,NNW,327,10.0,21.0,46,0.00,,,0.00,283.000000,,2013-01-20 16:12:00,
2013-01-20 10:33:00,9.0,-8.0,-100.00,NNW,327,10.0,21.0,46,0.00,,,0.00,283.000000,,2013-01-20 16:33:00,
2013-01-20 10:43:00,9.0,-8.0,-100.00,NNW,327,10.0,21.0,46,0.00,,,0.00,283.000000,,2013-01-20 16:43:00,
2013-01-20 10:53:00,9.0,-8.0,-100.00,NNW,327,10.0,21.0,46,0.00,,,0.00,283.000000,,2013-01-20 16:53:00,
2013-01-20 11:03:00,9.0,-8.0,-100.00,NNW,327,10.0,21.0,46,0.00,,,0.00,283.000000,,2013-01-20 17:03:00,
2013-01-20 11:12:00,10.0,-8.0,-100.00,NW,320,8.0,22.0,44,0.00,,,0.00,247.000000,,2013-01-20 17:12:00,
2013-01-20 11:33:00,10.0,-8.0,-100.00,NW,320,8.0,22.0,44,0.00,,,0.00,247.000000,,2013-01-20 17:33:00,
2013-01-20 11:43:00,10.0,-8.0,-100.00,NW,320,8.0,22.0,44,0.00,,,0.00,247.000000,,2013-01-20 17:43:00,
2013-01-20 11:53:00,10.0,-8.0,-100.00,NW,320,8.0,22.0,44,0.00,,,0.00,247.000000,,2013-01-20 17:53:00,
2013-01-20 12:03:00,10.0,-8.0,-100.00,NW,320,8.0,22.0,44,0.00,,,0.00,247.000000,,2013-01-20 18:03:00,
2013-01-20 12:12:00,15.0,-7.0,-100.00,NW,306,8.0,18.0,37,0.00,,,0.00,326.000000,,2013-01-20 18:12:00,
2013-01-20 12:33:00,15.0,-7.0,-100.00,NW,306,8.0,18.0,37,0.00,,,0.00,326.000000,,2013-01-20 18:33:00,
2013-01-20 12:43:00,15.0,-7.0,-100.00,NW,306,8.0,18.0,37,0.00,,,0.00,326.000000,,2013-01-20 18:43:00,
2013-01-20 12:53:00,15.0,-7.0,-100.00,NW,306,8.0,18.0,37,0.00,,,0.00,326.000000,,2013-01-20 18:53:00,
2013-01-20 13:02:00,15.0,-7.0,-100.00,NW,306,8.0,18.0,37,0.00,,,0.00,326.000000,,2013-01-20 19:02:00,
2013-01-20 13:12:00,15.0,-7.0,-100.00,WNW,299,10.0,17.0,36,0.00,,,0.00,352.000000,,2013-01-20 19:12:00,
2013-01-20 13:33:00,15.0,-7.0,-100.00,WNW,299,10.0,17.0,36,0.00,,,0.00,352.000000,,2013-01-20 19:33:00,
2013-01-20 13:43:00,15.0,-7.0,-100.00,WNW,299,10.0,17.0,36,0.00,,,0.00,352.000000,,2013-01-20 19:43:00,
2013-01-20 13:53:00,15.0,-7.0,-100.00,WNW,299,10.0,17.0,36,0.00,,,0.00,352.000000,,2013-01-20 19:53:00,
2013-01-20 14:03:00,15.0,-7.0,-100.00,WNW,299,10.0,17.0,36,0.00,,,0.00,352.000000,,2013-01-20 20:03:00,
2013-01-20 14:12:00,11.0,-6.0,-100.00,NW,326,7.0,17.0,46,0.00,,,0.00,216.000000,,2013-01-20 20:12:00,
2013-01-20 14:42:00,11.0,-6.0,-100.00,NW,326,7.0,17.0,46,0.00,,,0.00,216.000000,,2013-01-20 20:42:00,
2013-01-20 14:53:00,11.0,-6.0,-100.00,NW,326,7.0,17.0,46,0.00,,,0.00,216.000000,,2013-01-20 20:53:00,
2013-01-20 15:03:00,11.0,-6.0,-100.00,NW,326,7.0,17.0,46,0.00,,,0.00,216.000000,,2013-01-20 21:03:00,
2013-01-20 15:12:00,10.0,-2.0,-100.00,NW,320,6.0,12.0,57,0.00,,,0.00,96.000000,,2013-01-20 21:12:00,
2013-01-20 15:33:00,10.0,-2.0,-100.00,NW,320,6.0,12.0,57,0.00,,,0.00,96.000000,,2013-01-20 21:33:00,
2013-01-20 15:43:00,10.0,-2.0,-100.00,NW,320,6.0,12.0,57,0.00,,,0.00,96.000000,,2013-01-20 21:43:00,
2013-01-20 15:53:00,10.0,-2.0,-100.00,NW,320,6.0,12.0,57,0.00,,,0.00,96.000000,,2013-01-20 21:53:00,
2013-01-20 16:03:00,10.0,-2.0,-100.00,NW,320,6.0,12.0,57,0.00,,,0.00,96.000000,,2013-01-20 22:03:00,
2013-01-20 16:12:00,8.0,-6.0,-100.00,NW,312,6.0,13.0,52,0.00,,,0.00,44.000000,,2013-01-20 22:12:00,
2013-01-20 16:33:00,8.0,-6.0,-100.00,NW,312,6.0,13.0,52,0.00,,,0.00,44.000000,,2013-01-20 22:33:00,
2013-01-20 16:43:00,8.0,-6.0,-100.00,NW,312,6.0,13.0,52,0.00,,,0.00,44.000000,,2013-01-20 22:43:00,
2013-01-20 16:53:00,8.0,-6.0,-100.00,NW,312,6.0,13.0,52,0.00,,,0.00,44.000000,,2013-01-20 22:53:00,
2013-01-20 17:03:00,8.0,-6.0,-100.00,NW,312,6.0,13.0,52,0.00,,,0.00,44.000000,,2013-01-20 23:03:00,
2013-01-20 17:12:00,5.0,-9.0,-100.00,WNW,301,4.0,10.0,52,0.00,,,0.00,10.000000,,2013-01-20 23:12:00,
2013-01-20 17:33:00,5.0,-9.0,-100.00,WNW,301,4.0,10.0,52,0.00,,,0.00,10.000000,,2013-01-20 23:33:00,
2013-01-20 17:43:00,5.0,-9.0,-100.00,WNW,301,4.0,10.0,52,0.00,,,0.00,10.000000,,2013-01-20 23:43:00,
2013-01-20 17:53:00,5.0,-9.0,-100.00,WNW,301,4.0,10.0,52,0.00,,,0.00,10.000000,,2013-01-20 23:53:00,
2013-01-20 18:03:00,5.0,-9.0,-100.00,WNW,301,4.0,10.0,52,0.00,,,0.00,10.000000,,2013-01-21 00:03:00,
2013-01-20 18:12:00,2.0,-8.0,-100.00,WNW,298,2.0,5.0,61,0.00,,,0.00,0.000000,,2013-01-21 00:12:00,
2013-01-20 18:33:00,2.0,-8.0,-100.00,WNW,298,2.0,5.0,61,0.00,,,0.00,0.000000,,2013-01-21 00:33:00,
2013-01-20 18:43:00,2.0,-8.0,-100.00,WNW,298,2.0,5.0,61,0.00,,,0.00,0.000000,,2013-01-21 00:43:00,
2013-01-20 18:54:00,2.0,-8.0,-100.00,WNW,298,2.0,5.0,61,0.00,,,0.00,0.000000,,2013-01-21 00:54:00,
2013-01-20 19:03:00,2.0,-8.0,-100.00,WNW,298,2.0,5.0,61,0.00,,,0.00,0.000000,,2013-01-21 01:03:00,
2013-01-20 19:12:00,-2.0,-9.0,-100.00,NW,307,2.0,3.0,73,0.00,,,0.00,0.000000,,2013-01-21 01:12:00,
2013-01-20 19:33:00,-2.0,-9.0,-100.00,NW,307,2.0,3.0,73,0.00,,,0.00,0.000000,,2013-01-21 01:33:00,
2013-01-20 19:43:00,-2.0,-9.0,-100.00,NW,307,2.0,3.0,73,0.00,,,0.00,0.000000,,2013-01-21 01:43:00,
2013-01-20 19:53:00,-2.0,-9.0,-100.00,NW,307,2.0,3.0,73,0.00,,,0.00,0.000000,,2013-01-21 01:53:00,
2013-01-20 20:03:00,-2.0,-9.0,-100.00,NW,307,2.0,3.0,73,0.00,,,0.00,0.000000,,2013-01-21 02:03:00,
2013-01-20 20:12:00,-3.0,-10.0,-100.00,WSW,247,2.0,4.0,70,0.00,,,0.00,0.000000,,2013-01-21 02:12:00,
2013-01-20 20:33:00,-3.0,-10.0,-100.00,WSW,247,2.0,4.0,70,0.00,,,0.00,0.000000,,2013-01-21 02:33:00,
2013-01-20 20:43:00,-3.0,-10.0,-100.00,WSW,247,2.0,4.0,70,0.00,,,0.00,0.000000,,2013-01-21 02:43:00,
2013-01-20 20:53:00,-3.0,-10.0,-100.00,WSW,247,2.0,4.0,70,0.00,,,0.00,0.000000,,2013-01-21 02:53:00,
2013-01-20 21:03:00,-3.0,-10.0,-100.00,WSW,247,2.0,4.0,70,0.00,,,0.00,0.000000,,2013-01-21 03:03:00,
2013-01-20 21:12:00,-4.0,-12.0,-100.00,WNW,297,3.0,5.0,69,0.00,,,0.00,0.000000,,2013-01-21 03:12:00,
2013-01-20 21:33:00,-4.0,-12.0,-100.00,WNW,297,3.0,5.0,69,0.00,,,0.00,0.000000,,2013-01-21 03:33:00,
2013-01-20 21:43:00,-4.0,-12.0,-100.00,WNW,297,3.0,5.0,69,0.00,,,0.00,0.000000,,2013-01-21 03:43:00,
2013-01-20 21:53:00,-4.0,-12.0,-100.00,WNW,297,3.0,5.0,69,0.00,,,0.00,0.000000,,2013-01-21 03:53:00,
2013-01-20 22:03:00,-4.0,-12.0,-100.00,WNW,297,3.0,5.0,69,0.00,,,0.00,0.000000,,2013-01-21 04:03:00,
2013-01-20 22:12:00,-3.0,-11.0,-100.00,WNW,302,3.0,6.0,68,0.00,,,0.00,0.000000,,2013-01-21 04:12:00,
2013-01-20 22:33:00,-3.0,-11.0,-100.00,WNW,302,3.0,6.0,68,0.00,,,0.00,0.000000,,2013-01-21 04:33:00,
2013-01-20 22:43:00,-3.0,-11.0,-100.00,WNW,302,3.0,6.0,68,0.00,,,0.00,0.000000,,2013-01-21 04:43:00,
2013-01-20 22:53:00,-3.0,-11.0,-100.00,WNW,302,3.0,6.0,68,0.00,,,0.00,0.000000,,2013-01-21 04:53:00,
2013-01-20 23:03:00,-3.0,-11.0,-100.00,WNW,302,3.0,6.0,68,0.00,,,0.00,0.000000,,2013-01-21 05:03:00,
2013-01-20 23:12:00,-4.0,-12.0,-100.00,West,268,3.0,6.0,67,0.00,,,0.00,0.000000,,2013-01-21 05:12:00,
2013-01-20 23:34:00,-4.0,-12.0,-100.00,West,268,3.0,6.0,67,0.00,,,0.00,0.000000,,2013-01-21 05:34:00,
2013-01-20 23:43:00,-4.0,-12.0,-100.00,West,268,3.0,6.0,67,0.00,,,0.00,0.000000,,2013-01-21 05:43:00,
2013-01-20 23:53:00,-4.0,-12.0,-100.00,West,268,3.0,6.0,67,0.00,,,0.00,0.000000,,2013-01-21 05:53:00,